This demonstration page uses our WeatherBlox Daily Observations layout. Learn more.

Left ArrowRight Arrow

39.92423, -83.80882

Hourly Observations for June 6, 2015

Temp ( °F °C ) Dew Point ( °F °C ) Humidity (%) Winds ( mph kmh ) Pressure ( in mb ) Visibility ( mi km ) Precip ( " mm )
12:38 am 00:38 Mostly Cloudy with Mist and Fog 68 20 64 18 88 88 NNE 14 22 30 1016 5 8.0467 0 0
12:56 am 00:56 Cloudy with Mist and Fog 67 19.4 64 17.7 90 90 NNE 14 22 30.01 1016 5 8.0467 0 0
1:56 am 01:56 Cloudy with Mist and Fog 66 18.8 63 17.2 90 90 NE 13 20 30.01 1016 5 8.0467 0 0
2:56 am 02:56 Cloudy with Mist and Fog 64 17.7 61 16.1 90 90 NE 8 13 30.03 1017 5 8.0467 0 0
3:56 am 03:56 Cloudy with Mist and Fog 63 17.2 60 15.5 90 90 NE 10 17 30.03 1017 6 9.65604 0 0
4:56 am 04:56 Cloudy with Mist and Fog 63 17.2 59 15 87 87 NNE 15 24 30.04 1017 6 9.65604 0 0
5:56 am 05:56 Cloudy with Mist and Fog 62 16.6 59 15 90 90 NNE 14 22 30.05 1018 6 9.65604 0 0
6:56 am 06:56 Cloudy with Mist and Fog 62 16.6 59 15 90 90 N 10 17 30.07 1018 5 8.0467 0 0
7:56 am 07:56 Cloudy with Mist and Fog 63 17.2 59 15 87 87 N 8 13 30.07 1018 5 8.0467 0 0
8:56 am 08:56 Cloudy with Haze 65 18.3 60 15.5 84 84 NE 12 19 30.09 1019 6 9.65604 0 0
9:56 am 09:56 Cloudy with Mist and Fog 64 17.7 60 15.5 87 87 NE 14 22 30.11 1020 5 8.0467 0 0
10:56 am 10:56 Cloudy with Mist and Fog 65 18.3 61 16.1 87 87 NNE 8 13 30.1 1019 6 9.65604 0 0
11:56 am 11:56 Cloudy with Haze 68 20 62 16.6 81 81 N 7 11 30.11 1020 6 9.65604 0 0
12:16 pm 12:16 Cloudy with Haze 70 21 63 17 78 78 NE 8 13 30.09 1019 6 9.65604 0 0
12:56 pm 12:56 Cloudy with Haze 70 21.1 62 16.6 76 76 NNE 8 13 30.1 1019 6 9.65604 0 0
1:56 pm 13:56 Mostly Cloudy 72 22.2 62 16.6 71 71 NNE 8 13 30.09 1019 7 11.26538 0 0
2:56 pm 14:56 Mostly Cloudy 74 23.3 62 16.6 66 66 NE 9 15 30.09 1019 8 12.87472 0 0
3:35 pm 15:35 Mostly Cloudy 75 24 63 17 65 65 NE 9 15 30.06 1018 8 12.87472 0 0
3:56 pm 15:56 Mostly Cloudy 76 24.4 62 16.6 62 62 ENE 8 13 30.08 1019 8 12.87472 0 0
4:56 pm 16:56 Sunny 78 25.5 62 16.6 58 58 E 6 9 30.06 1018 8 12.87472 0 0
5:56 pm 17:56 Mostly Sunny 78 25.5 62 16.6 58 58 SE 5 7 30.05 1018 9 14.48406 0 0
6:56 pm 18:56 Partly Cloudy 78 25.5 61 16.1 56 56 ESE 7 11 30.04 1017 9 14.48406 0 0
7:56 pm 19:56 Mostly Sunny 74 23.3 62 16.6 66 66 Calm 30.04 1017 8 12.87472 0 0
8:56 pm 20:56 Mostly Cloudy 71 21.6 62 16.6 73 73 S 5 7 30.03 1017 8 12.87472 0 0
9:56 pm 21:56 Clear 66 18.8 61 16.1 84 84 Calm 30.04 1017 8 12.87472 0 0
10:56 pm 22:56 Mostly Clear 64 17.7 59 15 84 84 E 6 9 30.06 1018 10 16.0934 0 0
11:56 pm 23:56 Clear 62 16.6 58 14.4 87 87 E 3 6 30.05 1018 9 14.48406 0 0

Powered by AerisWeather